Regional Weather Roundup
Issued by NWS

Home | Current Version | Previous Version | Text Only | Print | Product List | Glossary Off
Versions: 1 2 3 4 5 6 7 8 9 10 11 12 13 14 15 16 17 18 19 20 21 22 23 24 25 26 27 28

000
ASUS45 KTFX 230510
RWRMT
MONTANA REGIONAL WEATHER ROUNDUP
NATIONAL WEATHER SERVICE GREAT FALLS MT
1100 PM MDT THU JUN 22 2017

NOTE: "FAIR" INDICATES FEW OR NO CLOUDS BELOW 12000 FEET WITH NO
SIGNIFICANT WEATHER AND/OR OBSTRUCTIONS TO VISIBILITY.

MTZ001>007-043-230600-
WEST OF THE DIVIDE

CITY           SKY/WX    TMP DP  RH WIND       PRES   REMARKS
KALISPELL      CLEAR     51  41  68 CALM      30.19R
MISSOULA       CLEAR     54  37  52 N3        30.21R
BUTTE          CLEAR     53  28  38 VRB3      30.30R
MULLAN PASS    CLEAR     48  28  46 NW5       30.31R
DEER LODGE       N/A     48  36  61 W6        30.30R
EUREKA           N/A     52  37  58 MISG      30.18S
$$

MTZ008-052>055-230600-
SOUTHWEST MONTANA

CITY           SKY/WX    TMP DP  RH WIND       PRES   REMARKS
BOZEMAN        CLEAR     47  36  65 N8        30.27R
DILLON         CLEAR     49  31  49 NE8       30.26R
W YELLOWSTONE  CLEAR     48  27  43 N12G18    30.30R
ENNIS          CLEAR     50  32  50 N13       30.32R
THREE FORKS      N/A     50  35  56 CALM      30.25R
$$

MTZ009-010-012-014-046-048-049-054-230600-
EAST SLOPES AND CENTRAL MONTANA

CITY           SKY/WX    TMP DP  RH WIND       PRES   REMARKS
CUT BANK       CLEAR     47  37  68 N7        30.27R
GREAT FALLS    CLEAR     49  38  65 SE5       30.29R
MALMSTROM AFB  PTCLDY    46  39  78 S6        30.28R
HELENA         CLEAR     54  37  52 SW6       30.27R
CHOTEAU          N/A     48  37  66 E3        30.30R
$$

MTZ011-013-016-021-045-047-050-051-230600-
NORTH CENTRAL MONTANA

CITY           SKY/WX    TMP DP  RH WIND       PRES   REMARKS
HAVRE          CLOUDY    43  35  73 CALM      30.24R
LEWISTOWN      PTCLDY    43  36  76 SW8       30.27R
N BAR RANCH      N/A     46  36  66 NW10G20   30.27R
CHINOOK          N/A     46  37  71 W7        30.23R
FORT BENTON      N/A     50  37  62 CALM      30.28R
$$

MTZ017>020-022>027-061-062-230600-
NORTHEAST MONTANA

CITY           SKY/WX    TMP DP  RH WIND       PRES   REMARKS
GLASGOW        MOCLDY    54  43  66 NW13      30.14R
JORDAN           N/A     53  40  61 NW10      30.17R
SIDNEY         CLOUDY    54  46  74 NW17G28   30.07R
WOLF POINT     CLOUDY    55  44  66 NW13      30.12R
MALTA          CLEAR     50  39  66 W10       30.18S
PLENTYWOOD       N/A     52  46  82 NW21G28   30.03R
POPLAR           N/A     55  45  67 NW13      30.10R
$$

MTZ028>42-056>058-230600-
SOUTHCENTRAL AND SOUTHEAST MONTANA

CITY           SKY/WX    TMP DP  RH WIND       PRES   REMARKS
BAKER          MOCLDY    52  43  71 NW21G30   30.11R
BILLINGS       MOCLDY    54  35  48 NE3       30.27R
LIVINGSTON     CLEAR     50  34  54 E10       30.28R
MILES CITY     CLOUDY    56  41  57 NW15      30.17R
BIG TIMBER     CLEAR     48  34  57 E6        30.32R
FORSYTH          N/A     54  39  58 SW3       30.21R
ROUNDUP          N/A     55  33  43 NW7       30.16R
$$

REGIONAL REPORTS...DAKOTAS

CITY           SKY/WX    TMP DP  RH WIND       PRES   REMARKS
WILLISTON      CLOUDY    55  48  77 NW24G32   30.03R
MINOT          CLOUDY    59  51  75 W24G33    29.86R
DICKINSON      CLOUDY    54  46  74 NW26G36   30.00R
BEACH          CLOUDY    52  45  76 NW24G30   30.11R
CROSBY         CLOUDY    52  50  93 NW24G35   29.99R
TIOGA          CLOUDY    52  52 100 NW26G38   29.99R
WATFORD CITY   CLOUDY    54  48  82 NW21G32   30.02R
BISMARCK       MOCLDY    61  46  57 W15G23    29.91R
GRAND FORKS    CLEAR     60  48  64 W13       29.69F
FARGO          PTCLDY    58  41  53 W7        29.73S
BUFFALO SD       N/A     53  43  68 NW22G31   30.04R
RAPID CITY     MOCLDY    64  33  31 N32G41    30.06R
$$

REGIONAL REPORTS...WYOMING/IDAHO/WASHINGTON

CITY           SKY/WX    TMP DP  RH WIND       PRES   REMARKS
GILLETTE       CLOUDY    58  32  37 N21       30.20R
SHERIDAN       CLOUDY    57  34  41 NW17G23   30.26R
BUFFALO WY     CLOUDY    55  28  35 N22G30    30.26R
CODY           MOCLDY    52  35  52 N18G25    30.31R
YELLOWSTONE LA   N/A     45  25  45 VRB6      30.34R
IDAHO FALLS    CLEAR     58  42  55 N8        30.15R
SALMON         CLEAR     57  28  33 N6        30.20R
BOISE          CLEAR     69  33  26 NW10      30.09R
SPOKANE        PTCLDY    67  32  27 VRB3      30.20S
$$

REGIONAL REPORTS...ALBERTA

CITY           SKY/WX    TMP DP  RH WIND       PRES   REMARKS
EDMONTON       CLEAR     48  39  71 W6        30.20R
CALGARY        MOCLDY    54  36  50 NE5       30.26R
LETHBRIDGE     CLOUDY    48  41  76 S3        30.26R
MEDICINE HAT   CLEAR     43  39  87 W6        30.22S
WATERTON GATE    N/A     43  39  87 NE2         N/A
CARDSTON         N/A     46  39  76 S2          N/A
MILK RIVER       N/A     43  39  87 N7          N/A
ONEFOUR          N/A     45  36  70 N8          N/A
$$

REGIONAL REPORTS...SASKATCHEWAN

CITY           SKY/WX    TMP DP  RH WIND       PRES   REMARKS
SWIFT CURRENT  CLOUDY    48  41  76 NW15      30.13R
REGINA         MOCLDY    52  41  66 NW24G31   30.02R
SASKATOON      PTCLDY    46  39  76 NW9       30.09R
CYPRESS HILLS    N/A     43  36  75 NW8         N/A
VAL MARIE        N/A     41  37  87 NW5         N/A
ROCKGLEN         N/A     46  41  81 NW15G23     N/A
$$




USA.gov is the U.S. government's official web portal to all federal, state and local government web resources and services.